• In Hungary
  • List of Countries
  • For 7 days
  • Water Temperature
  • Satellite Maps
  • Weather Map
  • News
  • Weather Widgets
  • user-avatar
    Login

    Hourly Weather Kareevka

    Today, 20 October, Saturday

    Time Temperature Precipitation Wind Pressure Humidity
    00:00 +11°C° 0 mm 3 mps 749 mmHg 65%
    01:00 +10°C° 0 mm 3 mps 749 mmHg 67%
    02:00 +10°C° 0 mm 3 mps 749 mmHg 68%
    03:00 +10°C° 0 mm 3 mps 749 mmHg 73%
    04:00 +9°C° 0 mm 2 mps 748 mmHg 74%
    05:00 +9°C° 0 mm 2 mps 748 mmHg 76%
    06:00 +9°C° 0 mm 2 mps 748 mmHg 77%
    07:00 +10°C° 0 mm 2 mps 749 mmHg 75%
    08:00 +12°C° 0 mm 2 mps 749 mmHg 73%
    09:00 +13°C° 0 mm 2 mps 749 mmHg 71%
    10:00 +14°C° 0 mm 2 mps 749 mmHg 68%
    11:00 +15°C° 0 mm 2 mps 749 mmHg 65%
    12:00 +16°C° 0 mm 2 mps 749 mmHg 63%
    13:00 +17°C° 0 mm 2 mps 749 mmHg 63%
    14:00 +17°C° 0 mm 2 mps 749 mmHg 63%
    15:00 +17°C° 0 mm 2 mps 749 mmHg 63%
    16:00 +16°C° 0 mm 3 mps 749 mmHg 67%
    17:00 +14°C° 0 mm 3 mps 749 mmHg 70%
    18:00 +13°C° 0 mm 3 mps 749 mmHg 74%
    19:00 +12°C° 0 mm 3 mps 750 mmHg 73%
    20:00 +12°C° 0 mm 3 mps 750 mmHg 73%
    21:00 +11°C° 0 mm 3 mps 750 mmHg 73%
    22:00 +10°C° 0 mm 4 mps 750 mmHg 73%
    23:00 +10°C° 0 mm 4 mps 750 mmHg 72%

    Tomorrow, 21 October, Sunday

    Time Temperature Precipitation Wind Pressure Humidity
    00:00 +8°C° 0 mm 4 mps 751 mmHg 72%
    01:00 +8°C° 0 mm 4 mps 751 mmHg 72%
    02:00 +8°C° 0 mm 3 mps 751 mmHg 73%
    03:00 +8°C° 0 mm 3 mps 751 mmHg 73%
    04:00 +8°C° 0 mm 3 mps 751 mmHg 75%
    05:00 +7°C° 0 mm 3 mps 751 mmHg 76%
    06:00 +7°C° 0 mm 3 mps 751 mmHg 78%
    07:00 +6°C° 0 mm 4 mps 752 mmHg 75%
    08:00 +7°C° 0 mm 4 mps 752 mmHg 73%
    09:00 +7°C° 0 mm 4 mps 752 mmHg 71%
    10:00 +8°C° 0 mm 4 mps 753 mmHg 68%
    11:00 +11°C° 0 mm 4 mps 753 mmHg 64%
    12:00 +12°C° 0 mm 4 mps 753 mmHg 60%
    13:00 +12°C° 0 mm 4 mps 753 mmHg 60%
    14:00 +12°C° 0 mm 4 mps 753 mmHg 59%
    15:00 +12°C° 0 mm 4 mps 753 mmHg 59%
    16:00 +12°C° 0 mm 4 mps 753 mmHg 60%
    17:00 +11°C° 0 mm 4 mps 753 mmHg 62%
    18:00 +10°C° 0 mm 3 mps 753 mmHg 64%
    19:00 +10°C° 0 mm 3 mps 753 mmHg 64%
    20:00 +10°C° 0 mm 3 mps 754 mmHg 64%
    21:00 +10°C° 0 mm 3 mps 754 mmHg 64%
    22:00 +10°C° 0 mm 3 mps 754 mmHg 65%
    23:00 +10°C° 0 mm 3 mps 754 mmHg 66%

    Day after tomorrow, 22 October, Monday

    Time Temperature Precipitation Wind Pressure Humidity
    00:00 +9°C° 0 mm 3 mps 754 mmHg 66%
    01:00 +9°C° 0 mm 3 mps 754 mmHg 68%
    02:00 +9°C° 0 mm 3 mps 754 mmHg 69%
    03:00 +9°C° 0 mm 3 mps 754 mmHg 70%
    04:00 +9°C° 0 mm 3 mps 754 mmHg 70%
    05:00 +8°C° 0 mm 4 mps 754 mmHg 70%
    06:00 +7°C° 0 mm 4 mps 754 mmHg 70%
    07:00 +8°C° 0 mm 4 mps 755 mmHg 70%
    08:00 +8°C° 0 mm 4 mps 755 mmHg 70%
    09:00 +8°C° 0 mm 4 mps 755 mmHg 69%
    10:00 +8°C° 0 mm 4 mps 755 mmHg 68%
    11:00 +10°C° 0 mm 4 mps 755 mmHg 66%
    12:00 +11°C° 0 mm 4 mps 755 mmHg 65%
    13:00 +11°C° 0 mm 4 mps 754 mmHg 64%
    14:00 +12°C° 0 mm 4 mps 754 mmHg 63%
    15:00 +13°C° 0 mm 4 mps 753 mmHg 61%
    16:00 +12°C° 0 mm 3 mps 753 mmHg 64%
    17:00 +11°C° 0 mm 3 mps 753 mmHg 67%
    18:00 +11°C° 0 mm 3 mps 753 mmHg 69%
    19:00 +11°C° 0 mm 3 mps 752 mmHg 69%
    20:00 +10°C° 0 mm 4 mps 752 mmHg 69%
    21:00 +10°C° 0 mm 4 mps 752 mmHg 68%
    22:00 +10°C° 0 mm 4 mps 752 mmHg 68%
    23:00 +9°C° 0 mm 5 mps 751 mmHg 68%

    23 October, Tuesday

    Time Temperature Precipitation Wind Pressure Humidity
    00:00 +9°C° 0 mm 5 mps 751 mmHg 67%
    01:00 +9°C° 0.2 mm 5 mps 750 mmHg 70%
    02:00 +9°C° 0.2 mm 5 mps 749 mmHg 74%
    03:00 +9°C° 0.2 mm 5 mps 749 mmHg 77%
    04:00 +9°C° 0.3 mm 6 mps 748 mmHg 76%
    05:00 +9°C° 0.3 mm 6 mps 747 mmHg 74%
    06:00 +10°C° 0.3 mm 6 mps 747 mmHg 73%
    07:00 +10°C° 0 mm 6 mps 746 mmHg 72%
    08:00 +11°C° 0 mm 7 mps 746 mmHg 70%
    09:00 +11°C° 0 mm 7 mps 745 mmHg 68%
    10:00 +12°C° 0 mm 7 mps 745 mmHg 69%
    11:00 +12°C° 0 mm 7 mps 745 mmHg 71%
    12:00 +12°C° 0 mm 7 mps 744 mmHg 72%
    13:00 +12°C° 0 mm 7 mps 744 mmHg 73%
    14:00 +13°C° 0 mm 6 mps 744 mmHg 73%
    15:00 +11°C° 0 mm 6 mps 744 mmHg 74%
    16:00 +12°C° 0 mm 5 mps 744 mmHg 74%
    17:00 +11°C° 0 mm 4 mps 744 mmHg 75%
    18:00 +11°C° 0 mm 4 mps 744 mmHg 76%
    19:00 +11°C° 0 mm 4 mps 744 mmHg 76%
    20:00 +11°C° 0 mm 4 mps 744 mmHg 76%
    21:00 +11°C° 0 mm 4 mps 743 mmHg 75%
    22:00 +10°C° 0 mm 3 mps 743 mmHg 77%
    23:00 +9°C° 0 mm 3 mps 743 mmHg 79%

    24 October, Wednesday

    Time Temperature Precipitation Wind Pressure Humidity
    00:00 +9°C° 0 mm 3 mps 742 mmHg 81%
    01:00 +8°C° 0 mm 3 mps 742 mmHg 83%
    02:00 +7°C° 0 mm 3 mps 742 mmHg 85%
    03:00 +7°C° 0 mm 3 mps 741 mmHg 87%
    04:00 +5°C° 0 mm 3 mps 741 mmHg 86%
    05:00 +5°C° 0 mm 3 mps 741 mmHg 86%
    06:00 +5°C° 0 mm 4 mps 740 mmHg 86%
    07:00 +5°C° 0 mm 4 mps 740 mmHg 81%
    08:00 +6°C° 0 mm 5 mps 740 mmHg 76%
    09:00 +7°C° 0 mm 6 mps 740 mmHg 71%
    10:00 +8°C° 0 mm 6 mps 739 mmHg 64%
    11:00 +9°C° 0 mm 6 mps 739 mmHg 57%
    12:00 +10°C° 0 mm 7 mps 739 mmHg 50%
    13:00 +11°C° 0 mm 6 mps 738 mmHg 48%
    14:00 +11°C° 0 mm 6 mps 737 mmHg 47%
    15:00 +11°C° 0 mm 6 mps 737 mmHg 46%
    16:00 +11°C° 0 mm 6 mps 736 mmHg 48%
    17:00 +10°C° 0 mm 5 mps 736 mmHg 51%
    18:00 +10°C° 0 mm 4 mps 736 mmHg 53%
    19:00 +9°C° 0 mm 5 mps 735 mmHg 55%
    20:00 +9°C° 0 mm 6 mps 734 mmHg 57%
    21:00 +10°C° 0 mm 7 mps 734 mmHg 59%
    22:00 +10°C° 0.1 mm 7 mps 733 mmHg 66%
    23:00 +10°C° 0.1 mm 8 mps 733 mmHg 73%

    25 October, Thursday

    Time Temperature Precipitation Wind Pressure Humidity
    00:00 +10°C° 0.1 mm 8 mps 732 mmHg 79%
    01:00 +10°C° 0.6 mm 7 mps 731 mmHg 83%
    02:00 +10°C° 0.6 mm 7 mps 731 mmHg 86%
    03:00 +10°C° 0.6 mm 6 mps 730 mmHg 89%
    04:00 +10°C° 0.4 mm 6 mps 730 mmHg 89%
    05:00 +9°C° 0.4 mm 6 mps 730 mmHg 89%
    06:00 +9°C° 0.4 mm 6 mps 729 mmHg 90%
    07:00 +9°C° 0.2 mm 6 mps 729 mmHg 88%
    08:00 +9°C° 0.2 mm 6 mps 730 mmHg 86%
    09:00 +10°C° 0.2 mm 6 mps 730 mmHg 84%
    10:00 +10°C° 0.5 mm 6 mps 730 mmHg 83%
    11:00 +10°C° 0.5 mm 6 mps 730 mmHg 82%
    12:00 +10°C° 0.5 mm 6 mps 730 mmHg 81%
    13:00 +10°C° 0.3 mm 6 mps 730 mmHg 80%
    14:00 +10°C° 0.3 mm 6 mps 729 mmHg 78%
    15:00 +10°C° 0.3 mm 6 mps 729 mmHg 76%
    16:00 +9°C° 0.3 mm 7 mps 730 mmHg 74%
    17:00 +8°C° 0.3 mm 7 mps 730 mmHg 72%
    18:00 +8°C° 0.3 mm 7 mps 730 mmHg 70%
    19:00 +6°C° 0 mm 7 mps 730 mmHg 70%
    20:00 +5°C° 0 mm 7 mps 731 mmHg 70%
    21:00 +4°C° 0 mm 6 mps 731 mmHg 70%
    22:00 +4°C° 0 mm 6 mps 732 mmHg 73%
    23:00 +4°C° 0 mm 6 mps 732 mmHg 76%
    Show more